Location: Härggis
(46.9540°N, 8.4897°E)
Time: 02:50:27
(UTC+00:00)

Cosmos 1455 Rocket - Pass Details

Date: 27 May 2022
Orbit: 604 x 629 km, 82.5° (Epoch: 26 June)

Event Time Altitude Azimuth Distance (km) Brightness Sun altitude
Rises 00:34:11 0° 351° (N) 2,931 7.6 -19.9°
Reaches altitude 10° 00:36:26 10° 352° (N) 2,018 6.6 -19.8°
Maximum altitude 00:40:55 82° 81° (E) 640 3.1 -19.6°
Enters shadow 00:42:30 40° 164° (SSE) 931 3.5 -19.5°
